Regional Weather Roundup
Issued by NWS Sterling, VA

Home | Current Version | Previous Version | Text Only | Print | Product List | Glossary Off
Versions: 1 2 3 4 5 6 7 8 9 10 11 12 13 14 15 16 17 18 19 20 21 22 23 24 25 26 27

000
ASUS41 KLWX 241310
RWRLWX

REGIONAL WEATHER ROUNDUP
NATIONAL WEATHER SERVICE BALTIMORE MD/WASHINGTON DC
800 AM EST FRI FEB 24 2017

Note: "FAIR" indicates few or no clouds below 12,000 feet
with no significant weather and/or obstructions to visibility.
 TC=TEMPERATURE CELSIUS

 * =Non NWS site. Station does not report precipitation (e.g. rain,
    snow, etc.), thunder, or fog.

DCZ001-MDZ009-015-VAZ040>042-051-053>054-241400-
WASHINGTON METRO

CITY           SKY/WX    TMP DP  RH WIND       PRES   REMARKS
WASHINGTON NAT MOSUNNY   57  55  93 S7        29.93R
DULLES         MOSUNNY   57  52  83 S7        29.91R
ANDREWS AFB    SUNNY     59  55  86 S9        29.92R
QUANTICO       SUNNY     54  54 100 SW6       29.93S
COLLEGE PARK*  SUNNY     52  50  93 CALM      29.92R
LEESBURG*      SUNNY     55  55 100 MISG      29.92R
MANASSAS*      SUNNY     54  53  97 CALM      29.92R
GAITHERSBURG*  SUNNY     57  52  82 S6        29.96R

$$

MDZ006>007-011-014-241400-
BALTIMORE METRO

CITY           SKY/WX    TMP DP  RH WIND       PRES   REMARKS
BWI AIRPORT    MOSUNNY   54  53  97 CALM      29.92R
MD SCIENCE CTR   N/A     54  49  83 MISG      29.93R
MARTIN STATE   PTSUNNY   52  52 100 SE6       29.94R
ANNAPOLIS      PTSUNNY   52  50  93 SE7       29.93R
FORT MEADE*    PTSUNNY   50  46  87 CALM      29.95R

$$

MDZ012-015-019>023-241400-
MARYLAND EASTERN SHORE

CITY           SKY/WX    TMP DP  RH WIND       PRES   REMARKS
OCEAN CITY     SUNNY     52  51  97 CALM      29.97S
SALISBURY      SUNNY     57  55  93 S3        29.96R
BAY BRIDGE AP* SUNNY     55  52  88 S9        29.94R FOG
CAMBRIDGE*     SUNNY     55  54  94 S6        29.95S
EASTON*        SUNNY     59  54  82 S7        29.98R

$$

MDZ017>025-241400-
SOUTHERN MARYLAND

CITY           SKY/WX    TMP DP  RH WIND       PRES   REMARKS
PATUXENT RIVER MOSUNNY   50  50 100 CALM      29.94R
ST INIGOES     SUNNY     57  54  89 S3        29.94R
LEONARDTOWN*   SUNNY     55  52  88 CALM      29.96R

$$

MDZ003>005-241400-
NORTH CENTRAL MARYLAND

CITY           SKY/WX    TMP DP  RH WIND       PRES   REMARKS
FREDERICK*     SUNNY     50  50 100 CALM      29.94R
HAGERSTOWN APT SUNNY     60  52  74 S8        29.88R
WESTMINSTER*   NOT AVBL

$$

MDZ501>502-241400-
WESTERN MARYLAND

CITY           SKY/WX    TMP DP  RH WIND       PRES   REMARKS
OAKLAND*       CLOUDY    55  45  67 SW8       29.90R
CUMBERLAND*    MOSUNNY   52  52 100 CALM      29.92R

$$

VAZ025>031-241400-
SHENANDOAH VALLEY

CITY           SKY/WX    TMP DP  RH WIND       PRES   REMARKS
WINCHESTER*    SUNNY     54  48  82 SW6       29.88R
FRONT ROYAL*   SUNNY     54  50  87 CALM      29.88R
LURAY*         MOSUNNY   48  48 100 CALM      29.90R
NEW MARKET*    MOSUNNY   48  46  91 SW6       29.89R
STAUNTON*      MOSUNNY   47  46  97 SW3       29.93R
WAYNESBORO*    SUNNY     48  47  96 CALM      29.91S

$$

WVZ021-048>050-054>055-241400-
EASTERN WEST VIRGINIA PANHANDLE

CITY           SKY/WX    TMP DP  RH WIND       PRES   REMARKS
MARTINSBURG    SUNNY     53  49  86 CALM      29.88R
PETERSBURG*    PTSUNNY   48  47  95 CALM      29.89R

$$

VAZ036>039-050-241400-
CENTRAL FOOTHILLS

CITY           SKY/WX    TMP DP  RH WIND       PRES   REMARKS
CHARLOTTESVILL SUNNY     55  51  86 SW7       29.91S
CULPEPER*      SUNNY     53  53 100 SW3       29.93R
ORANGE*        SUNNY     52  50  93 CALM      29.93S
GORDONSVILLE*  SUNNY     50  50 100 SW3       29.92S
WARRENTON*     SUNNY     58  51  78 SW5       29.91R

$$

VAZ055>057-241400-
NORTH AND CENTRAL PIEDMONT

CITY           SKY/WX    TMP DP  RH WIND       PRES   REMARKS
FREDERICKSBRG* SUNNY     56  56 100 S3        29.92S
STAFFORD*      SUNNY     55  55 100 CALM      29.97R

$$

NCZ024-NYZ072-PAZ021-071-VAZ022-071-241400-
OTHER REGIONAL OBSERVATIONS

CITY           SKY/WX    TMP DP  RH WIND       PRES   REMARKS
NEW YORK CITY  SUNNY     60  52  74 CALM      29.96R
PHILADELPHIA   MOSUNNY   56  51  84 S5        29.95R
PITTSBURGH     CLOUDY    60  51  72 S10       29.80R
ROANOKE        MOSUNNY   50  48  93 CALM      29.96R
RICHMOND       MOSUNNY   55  55 100 CALM      29.94S
RALEIGH        MOSUNNY   53  51  93 CALM      29.94R

$$

ANZ530>537-241400-
MARINE OBSERVATIONS

STATION/POSITION TIME  TEMP    WIND        PRES
                       AIR SEA DIR/SP/G
                 (UTC) (F)     (DEG/KT/KT) (MB)
THOMAS PT LIGHT  1200   47 44  190/  8/  9   N/A
BALT KEY BRIDGE  1248   51     100/  5/  5 1013.2R
COVE POINT       1248   47     190/ 10/ 10 1014.5R
LEWISETTA        1248   57 45  200/  3/  3 1013.6R
SOLOMONS ISLAND  1248   51 46   90/  5/  5   N/A
PINEY POINT      1248          110/  4/  5   N/A

$$





USA.gov is the U.S. government's official web portal to all federal, state and local government web resources and services.